NOZ4BJ ENGM-EPKK

Flight info

Callsign NOZ4BJ
Flight time N/A
Altitude 31000
Route OKSAT L996 GETPA/N0446F350 L996 KELIN DCT NEXIL DCT ROE DCT AMROR N983 POLON N133 NEGUV M66 KUKAM
Aircraft B738/M-SDE2E3FGHIRWXY/LB1

Departure

Time N/A
Airport Oslo-Gardermoen International Airport (ENGM)

Arrival

Time 2026-05-05 16:07
Airport Kraków John Paul II International Airport (EPKK)
Time Latitude Longitude Altitude Speed Heading
2026-05-05 15:26 51.46987 19.56405 24961 ft 355 kts 158°
2026-05-05 15:26 51.44760 19.58100 24620 ft 354 kts 158°
2026-05-05 15:27 51.42560 19.59771 24278 ft 354 kts 158°
2026-05-05 15:27 51.40326 19.61466 23927 ft 354 kts 158°
2026-05-05 15:27 51.38089 19.63162 23568 ft 355 kts 158°
2026-05-05 15:27 51.35855 19.64852 23180 ft 356 kts 158°
2026-05-05 15:28 51.33615 19.66547 22783 ft 355 kts 158°
2026-05-05 15:28 51.31387 19.68230 22425 ft 354 kts 158°
2026-05-05 15:28 51.29157 19.69914 22063 ft 353 kts 158°
2026-05-05 15:28 51.26964 19.71568 21711 ft 352 kts 158°
2026-05-05 15:29 51.24747 19.73239 21355 ft 350 kts 158°
2026-05-05 15:29 51.22539 19.74900 21015 ft 349 kts 158°
2026-05-05 15:29 51.20335 19.76556 20657 ft 348 kts 158°
2026-05-05 15:29 51.18168 19.78183 20326 ft 347 kts 158°
2026-05-05 15:30 51.15980 19.79825 19973 ft 347 kts 158°
2026-05-05 15:30 51.13793 19.81462 19626 ft 346 kts 158°
2026-05-05 15:30 51.11620 19.83088 19281 ft 345 kts 159°
2026-05-05 15:30 51.09441 19.84717 18931 ft 344 kts 159°
2026-05-05 15:31 51.08329 19.85547 18756 ft 342 kts 159°
2026-05-05 15:32 51.07401 19.86240 18596 ft 339 kts 159°
2026-05-05 15:32 51.05279 19.87826 18254 ft 333 kts 159°
2026-05-05 15:32 51.03196 19.89381 17898 ft 326 kts 159°
2026-05-05 15:32 51.01165 19.90894 17599 ft 318 kts 159°
2026-05-05 15:33 50.99169 19.92378 17207 ft 314 kts 159°
2026-05-05 15:33 50.97231 19.93817 16871 ft 308 kts 159°
2026-05-05 15:33 50.95299 19.95251 16541 ft 303 kts 159°
2026-05-05 15:33 50.93404 19.96655 16228 ft 298 kts 159°
2026-05-05 15:34 50.91537 19.98036 15918 ft 294 kts 159°
2026-05-05 15:34 50.89700 19.99394 15615 ft 289 kts 159°
2026-05-05 15:34 50.87891 20.00731 15308 ft 285 kts 159°
2026-05-05 15:34 50.86103 20.02050 15019 ft 282 kts 160°
2026-05-05 15:35 50.84325 20.03361 14724 ft 282 kts 159°
2026-05-05 15:35 50.82552 20.04676 14452 ft 286 kts 159°
2026-05-05 15:35 50.80701 20.05845 14128 ft 286 kts 171°
2026-05-05 15:35 50.78695 20.06132 13525 ft 295 kts 184°
2026-05-05 15:36 50.76633 20.06029 13076 ft 296 kts 185°
2026-05-05 15:36 50.74600 20.05898 12754 ft 288 kts 185°
2026-05-05 15:36 50.72631 20.05775 12479 ft 279 kts 185°
2026-05-05 15:36 50.70748 20.05665 12210 ft 270 kts 185°
2026-05-05 15:37 50.68896 20.05563 11946 ft 262 kts 185°
2026-05-05 15:37 50.67092 20.05466 11701 ft 258 kts 185°
2026-05-05 15:37 50.65293 20.05371 11435 ft 258 kts 185°
2026-05-05 15:37 50.63466 20.05276 11185 ft 267 kts 185°
2026-05-05 15:38 50.61560 20.05176 10931 ft 278 kts 185°
2026-05-05 15:38 50.59620 20.05081 10634 ft 276 kts 185°
2026-05-05 15:38 50.57740 20.04991 10350 ft 271 kts 185°
2026-05-05 15:38 50.55870 20.04900 10070 ft 266 kts 185°
2026-05-05 15:39 50.54047 20.04811 9948 ft 256 kts 185°
2026-05-05 15:39 50.52304 20.04727 9815 ft 246 kts 185°
2026-05-05 15:39 50.50634 20.04647 9817 ft 236 kts 185°
2026-05-05 15:39 50.49010 20.04568 9692 ft 234 kts 185°
2026-05-05 15:40 50.47345 20.04485 9515 ft 246 kts 185°
2026-05-05 15:40 50.45592 20.04472 9259 ft 262 kts 175°
2026-05-05 15:40 50.43854 20.05258 9151 ft 257 kts 164°
2026-05-05 15:40 50.42187 20.06202 8931 ft 250 kts 164°
2026-05-05 15:41 50.40566 20.07122 8653 ft 246 kts 164°
2026-05-05 15:41 50.38952 20.08029 8402 ft 246 kts 164°
2026-05-05 15:41 50.37324 20.08934 8160 ft 251 kts 164°
2026-05-05 15:41 50.35649 20.09857 7896 ft 258 kts 164°
2026-05-05 15:42 50.33941 20.10796 7619 ft 260 kts 164°
2026-05-05 15:42 50.32241 20.11729 7340 ft 256 kts 164°
2026-05-05 15:42 50.30577 20.12641 7140 ft 249 kts 164°
2026-05-05 15:42 50.28964 20.13523 6947 ft 243 kts 164°
2026-05-05 15:43 50.27381 20.14386 6710 ft 239 kts 164°
2026-05-05 15:43 50.25822 20.15233 6526 ft 233 kts 164°
2026-05-05 15:43 50.24319 20.16050 6427 ft 233 kts 165°
2026-05-05 15:43 50.22779 20.16884 6240 ft 235 kts 165°
2026-05-05 15:44 50.21231 20.17724 5980 ft 234 kts 165°
2026-05-05 15:44 50.19711 20.18549 5819 ft 226 kts 165°
2026-05-05 15:44 50.18245 20.19346 5723 ft 222 kts 165°
2026-05-05 15:44 50.16780 20.20121 5641 ft 222 kts 170°
2026-05-05 15:45 50.15266 20.20092 5538 ft 219 kts 200°
2026-05-05 15:45 50.13976 20.18816 5317 ft 228 kts 232°
2026-05-05 15:45 50.13325 20.16577 5232 ft 226 kts 248°
2026-05-05 15:45 50.12860 20.14261 5016 ft 217 kts 251°
2026-05-05 15:46 50.12500 20.12060 4772 ft 209 kts 252°
2026-05-05 15:46 50.12181 20.09880 4516 ft 202 kts 253°
2026-05-05 15:46 50.11883 20.07778 4258 ft 196 kts 253°
2026-05-05 15:46 50.11590 20.05708 4006 ft 194 kts 253°
2026-05-05 15:47 50.11303 20.03681 3746 ft 186 kts 253°
2026-05-05 15:47 50.11123 20.02399 3584 ft 180 kts 253°
2026-05-05 15:47 50.10778 19.99949 3298 ft 166 kts 252°
2026-05-05 15:47 50.10537 19.98241 3090 ft 156 kts 253°
2026-05-05 15:48 50.10315 19.96659 2889 ft 145 kts 253°
2026-05-05 15:48 50.10102 19.95148 2694 ft 141 kts 253°
2026-05-05 15:48 50.09888 19.93637 2506 ft 145 kts 254°
2026-05-05 15:48 50.09670 19.92082 2327 ft 147 kts 252°
2026-05-05 15:49 50.09458 19.90569 2121 ft 144 kts 252°
2026-05-05 15:49 50.09244 19.89032 1943 ft 148 kts 253°
2026-05-05 15:49 50.09017 19.87442 1756 ft 151 kts 253°
2026-05-05 15:49 50.08799 19.85858 1541 ft 150 kts 250°
2026-05-05 15:50 50.08576 19.84272 1420 ft 142 kts 252°
2026-05-05 15:50 50.08431 19.83065 1796 ft 103 kts 251°
2026-05-05 15:50 50.08267 19.81739 1538 ft 133 kts 251°
2026-05-05 15:50 50.08029 19.80244 1745 ft 150 kts 249°
2026-05-05 15:51 50.07761 19.78678 1957 ft 148 kts 246°
2026-05-05 15:51 50.07426 19.77177 2061 ft 150 kts 243°
2026-05-05 15:51 50.07106 19.75531 2057 ft 169 kts 250°
2026-05-05 15:51 50.06717 19.73790 2343 ft 167 kts 244°
2026-05-05 15:52 50.06350 19.72032 2530 ft 175 kts 249°
2026-05-05 15:52 50.05958 19.70249 2739 ft 171 kts 242°
2026-05-05 15:52 50.05463 19.68583 2940 ft 175 kts 246°
2026-05-05 15:52 50.05096 19.66650 2753 ft 199 kts 253°
2026-05-05 15:53 50.04952 19.64387 2459 ft 224 kts 268°
2026-05-05 15:53 50.05078 19.61867 2208 ft 235 kts 273°
2026-05-05 15:53 50.05487 19.59580 2459 ft 209 kts 295°
2026-05-05 15:53 50.06325 19.57797 2390 ft 204 kts 302°
2026-05-05 15:54 50.07246 19.56009 2095 ft 219 kts 306°
2026-05-05 15:54 50.08185 19.54105 2506 ft 218 kts 293°
2026-05-05 15:54 50.08915 19.51920 2911 ft 239 kts 292°
2026-05-05 15:54 50.10024 19.49923 3458 ft 254 kts 323°
2026-05-05 15:55 50.11706 19.49021 3761 ft 260 kts 353°
2026-05-05 15:55 50.13536 19.49501 3917 ft 289 kts 28°
2026-05-05 15:55 50.15088 19.51552 4664 ft 293 kts 53°
2026-05-05 15:55 50.15911 19.54359 4943 ft 283 kts 85°
2026-05-05 15:56 50.15949 19.57447 5022 ft 287 kts 96°
2026-05-05 15:56 50.15882 19.60587 4989 ft 290 kts 95°
2026-05-05 15:56 50.15810 19.63669 5001 ft 285 kts 96°
2026-05-05 15:56 50.15712 19.66755 5014 ft 284 kts 96°
2026-05-05 15:57 50.15643 19.69839 4968 ft 285 kts 96°
2026-05-05 15:57 50.15469 19.72924 4965 ft 285 kts 99°
2026-05-05 15:57 50.15280 19.76004 4978 ft 285 kts 98°
2026-05-05 15:57 50.15142 19.79094 4967 ft 285 kts 96°
2026-05-05 15:58 50.15072 19.82191 4969 ft 285 kts 94°
2026-05-05 15:58 50.15009 19.85250 4979 ft 285 kts 97°
2026-05-05 15:58 50.14886 19.88321 4969 ft 282 kts 97°
2026-05-05 15:58 50.14785 19.90331 4967 ft 279 kts 98°
2026-05-05 15:59 50.14715 19.93349 4983 ft 279 kts 91°
2026-05-05 15:59 50.14988 19.96309 4960 ft 272 kts 76°
2026-05-05 15:59 50.15355 19.99097 4966 ft 255 kts 89°
2026-05-05 15:59 50.15508 20.01853 4978 ft 254 kts 88°
2026-05-05 16:00 50.15683 20.04597 4991 ft 255 kts 88°
2026-05-05 16:00 50.15864 20.07361 4995 ft 257 kts 89°
2026-05-05 16:00 50.15981 20.10141 4974 ft 256 kts 91°
2026-05-05 16:00 50.16057 20.12906 4985 ft 255 kts 92°
2026-05-05 16:01 50.15852 20.15587 4971 ft 245 kts 120°
2026-05-05 16:01 50.14779 20.17423 4997 ft 227 kts 159°
2026-05-05 16:01 50.13283 20.17734 4985 ft 217 kts 196°
2026-05-05 16:01 50.12056 20.16476 4825 ft 212 kts 236°
2026-05-05 16:02 50.11738 20.14314 4818 ft 209 kts 272°
2026-05-05 16:02 50.11917 20.12096 4738 ft 203 kts 267°
2026-05-05 16:02 50.11894 20.09975 4522 ft 188 kts 260°
2026-05-05 16:02 50.11786 20.08008 4279 ft 177 kts 258°
2026-05-05 16:03 50.11615 20.06153 4045 ft 166 kts 255°
2026-05-05 16:03 50.11404 20.04460 3839 ft 153 kts 252°
2026-05-05 16:03 50.11187 20.02870 3671 ft 148 kts 252°
2026-05-05 16:03 50.10974 20.01346 3473 ft 143 kts 252°
2026-05-05 16:04 50.10757 19.99811 3285 ft 146 kts 253°
2026-05-05 16:04 50.10541 19.98272 3095 ft 143 kts 252°
2026-05-05 16:04 50.10329 19.96769 2902 ft 142 kts 253°
2026-05-05 16:04 50.10116 19.95258 2717 ft 144 kts 254°
2026-05-05 16:05 50.09903 19.93741 2519 ft 142 kts 253°
2026-05-05 16:05 50.09692 19.92239 2338 ft 143 kts 254°
2026-05-05 16:05 50.09480 19.90728 2145 ft 144 kts 253°
2026-05-05 16:05 50.09267 19.89192 1964 ft 143 kts 251°
2026-05-05 16:06 50.09053 19.87688 1772 ft 149 kts 254°
2026-05-05 16:06 50.08834 19.86091 1584 ft 149 kts 249°
2026-05-05 16:06 50.08592 19.84463 1333 ft 156 kts 255°
2026-05-05 16:06 50.08377 19.82821 1133 ft 154 kts 258°
2026-05-05 16:07 50.08155 19.81242 990 ft 143 kts 259°
2026-05-05 16:07 50.07946 19.79739 817 ft 140 kts 255°
2026-05-05 16:07 50.07769 19.78495 800 ft 73 kts 258°
2026-05-05 16:07 50.07734 19.78229 798 ft 0 kts 258°
2026-05-05 16:08 50.07708 19.78114 798 ft 15 kts 219°
2026-05-05 16:08 50.07626 19.78091 799 ft 0 kts 184°
2026-05-05 16:08 50.07622 19.78091 799 ft 1 kts 184°
2026-05-05 16:09 50.07618 19.78090 799 ft 1 kts 184°
2026-05-05 16:09 50.07579 19.78089 799 ft 3 kts 183°
2026-05-05 16:09 50.07571 19.78088 799 ft 4 kts 184°
2026-05-05 16:09 50.07566 19.78087 799 ft 0 kts 184°
2026-05-05 16:10 50.07558 19.78086 799 ft 2 kts 185°
2026-05-05 16:10 50.07539 19.78084 799 ft 0 kts 186°
2026-05-05 16:11 50.07490 19.78086 799 ft 8 kts 151°
2026-05-05 16:12 50.07483 19.78230 799 ft 21 kts 75°
2026-05-05 16:12 50.07548 19.78692 799 ft 19 kts 78°
2026-05-05 16:13 50.07625 19.79240 799 ft 16 kts 77°
2026-05-05 16:13 50.07651 19.79427 799 ft 19 kts 78°
2026-05-05 16:13 50.07678 19.79625 799 ft 17 kts 84°
2026-05-05 16:14 50.07518 19.79743 799 ft 15 kts 168°
2026-05-05 16:14 50.07410 19.79778 799 ft 0 kts 168°
2026-05-05 16:15 50.07368 19.79813 799 ft 7 kts 159°
2026-05-05 16:15 50.07345 19.79779 799 ft 8 kts 227°
2026-05-05 16:16 50.07296 19.79770 799 ft 6 kts 168°
2026-05-05 16:16 50.07273 19.79779 799 ft 0 kts 167°